GFSGL_700_rhum_204.txt.gz
RH
98 98 87 95 99 98 80 62 44 37 38 41 40 40 42 41 41 43 42 39 37 33 29 23 19 18 16 14 12 11 9 8 8 7 6 5 4 4 3 3 3 3 3
100 96 93 99 98 91 63 45 40 44 44 43 44 48 46 45 45 43 41 37 32 25 21 18 17 15 12 11 9 8 6 5 4 4 3 3 3 2 2 2 2 2 2
100 100 98 100 98 63 46 47 46 46 48 52 50 49 48 48 44 40 34 28 22 19 18 16 13 11 9 7 6 4 4 3 3 3 2 3 2 3 3 3 3 3 4
100 100 100 93 58 46 48 48 51 53 52 52 54 52 48 43 37 30 24 20 18 17 14 12 10 8 6 4 4 3 3 3 4 4 3 3 4 4 4 4 4 5 5
90 95 94 84 50 51 54 58 55 56 56 54 51 47 40 31 25 21 20 18 15 13 11 9 6 5 4 4 3 3 4 5 5 6 6 6 6 7 9 9 8 7 6
97 87 60 54 59 62 58 59 60 57 55 51 43 34 27 22 21 20 17 15 13 10 8 6 5 4 4 4 5 6 8 9 9 10 11 14 15 16 16 12 9 8 6
66 59 62 64 61 61 62 61 60 56 46 38 32 26 23 22 19 17 15 12 10 8 6 5 4 5 6 6 7 9 10 13 16 18 19 23 24 22 17 12 12 14 11
65 66 63 63 66 66 66 61 53 48 43 34 25 24 21 19 17 15 12 9 7 6 5 6 7 7 8 10 12 13 14 16 19 23 26 28 31 24 24 32 44 30 23
67 66 68 69 69 68 67 74 72 50 29 25 22 18 17 16 14 12 9 6 6 6 7 8 10 11 12 18 20 20 20 19 27 30 29 32 36 28 42 51 32 30 28
67 70 72 74 79 83 88 82 48 28 22 18 16 17 14 11 9 7 7 7 8 9 12 14 15 17 20 26 30 32 32 30 40 39 36 35 42 32 45 50 34 29 31
75 78 80 82 87 89 67 42 27 18 15 13 11 9 7 6 6 8 10 13 16 20 25 30 33 34 37 44 50 53 50 50 51 58 68 70 46 44 48 47 42 42 43
84 86 87 93 94 79 41 23 15 12 10 8 5 5 6 8 10 10 12 16 20 22 24 29 41 53 55 54 61 76 90 99 73 69 66 46 45 68 39 43 47 45 44
95 96 96 94 74 38 20 13 10 8 5 5 7 8 8 9 12 15 17 20 26 31 36 42 46 61 84 86 87 91 97 100 100 93 71 51 48 66 58 51 53 50 45
97 96 92 74 36 16 11 8 5 5 7 8 7 8 10 11 15 17 17 18 22 30 41 55 59 79 87 85 90 93 96 100 99 90 81 64 56 66 89 66 55 50 40
95 91 62 24 13 9 5 5 7 8 7 8 8 10 11 13 16 18 18 21 36 46 63 73 83 87 90 82 79 85 93 98 99 100 96 84 70 69 92 92 65 54 41
92 57 24 11 6 4 6 8 8 8 9 10 11 12 14 15 18 20 21 27 34 44 66 79 82 87 88 84 79 80 85 95 100 100 99 97 98 100 97 93 62 41 37
43 17 8 5 4 8 9 9 10 12 13 14 15 16 16 15 18 22 24 28 35 40 52 62 68 72 77 81 80 84 87 95 99 99 100 100 100 100 95 90 76 49 40
11 6 4 6 10 10 11 12 14 15 17 19 22 22 22 20 21 24 28 30 33 43 51 58 64 67 72 79 78 84 87 89 94 98 98 97 96 95 95 90 86 58 45
5 5 9 12 13 14 15 17 19 23 24 26 28 33 34 32 28 29 34 37 37 38 49 57 64 69 72 75 76 82 86 89 93 95 96 99 99 99 98 99 92 73 65
7 11 13 14 16 18 21 24 26 27 29 32 35 38 39 40 42 38 38 41 43 46 51 59 64 70 76 77 79 84 86 90 94 95 96 96 98 97 98 97 100 98 99
12 14 15 18 22 25 27 28 30 32 34 36 39 42 45 46 48 51 51 47 49 57 65 66 68 72 75 78 79 80 83 90 96 93 90 93 96 98 100 99 98 99 98
16 18 21 25 27 30 32 34 36 38 40 41 44 49 53 54 57 60 64 68 71 73 76 79 78 80 82 82 83 83 86 87 93 93 94 98 99 99 96 96 98 98 96
21 24 27 30 32 35 38 40 43 45 46 49 52 55 58 61 63 66 70 74 79 82 84 86 88 88 88 89 92 95 94 93 96 95 94 99 100 99 98 98 99 99 96
27 29 32 34 39 41 43 45 47 49 52 54 57 59 59 59 62 66 71 77 82 85 88 90 92 92 91 94 97 100 100 100 100 100 100 99 99 100 99 99 100 100 98
30 31 32 39 45 46 49 50 52 54 57 58 53 54 59 66 72 75 78 81 83 85 90 95 96 96 95 97 100 100 100 100 100 100 100 100 100 100 100 99 99 96 99
26 29 40 48 50 52 52 52 55 56 50 49 57 66 68 71 74 77 80 82 84 87 88 89 94 100 99 99 100 100 100 100 100 100 100 100 100 100 100 99 100 100 98

GFSGL_700_rhum_210.txt.gz
RH
81 84 97 100 98 92 99 100 100 100 100 89 60 51 43 42 44 42 38 36 34 38 41 39 39 35 30 28 25 21 18 17 16 13 9 7 6 5 4 3 3 3 3
92 83 93 94 84 89 100 100 100 100 100 74 52 48 45 48 46 43 39 38 40 42 42 40 34 31 27 23 20 17 15 11 10 9 7 5 4 2 3 2 3 3 3
98 98 100 96 100 100 100 100 100 99 75 60 52 48 48 48 49 47 44 44 44 44 38 36 35 28 22 19 16 13 10 8 5 4 3 3 3 3 3 4 4 5 6
100 100 100 100 100 100 100 100 100 98 86 73 57 51 53 55 51 50 48 46 44 45 44 34 25 22 18 14 12 8 6 4 3 3 4 4 5 6 6 6 6 7 8
100 100 100 100 100 100 100 100 100 99 96 60 52 57 55 54 52 50 48 55 57 40 28 25 19 15 11 8 6 4 3 4 4 4 6 7 8 9 10 10 11 12 12
99 100 100 100 100 99 99 97 97 84 58 63 58 57 57 56 53 64 67 52 35 30 20 17 13 9 6 4 4 4 4 5 5 7 9 10 14 14 17 19 21 21 18
99 99 100 99 99 99 98 96 84 71 65 60 61 60 57 68 71 65 49 38 26 20 14 10 6 4 4 4 4 4 5 7 8 10 11 19 21 28 30 31 33 32 28
99 100 99 99 98 92 84 78 72 66 65 66 62 72 76 71 58 47 30 20 15 10 6 4 4 4 4 4 4 4 5 7 11 16 22 26 34 38 42 45 50 43 36
99 100 100 94 83 82 78 69 70 72 69 72 76 78 72 59 36 23 16 12 7 5 4 4 4 4 5 5 4 4 5 8 15 19 25 35 47 60 86 83 68 60 56
100 97 90 84 80 74 70 75 74 74 80 82 83 75 49 31 18 13 8 6 5 4 4 5 5 5 5 5 5 5 5 9 14 23 32 52 85 92 93 100 88 67 62
88 88 94 88 73 72 75 75 79 85 89 86 72 46 28 17 11 6 5 5 4 5 6 6 6 7 7 7 7 7 9 14 24 38 53 67 80 90 86 88 85 92 87
96 85 82 73 73 76 79 85 95 94 88 70 44 25 15 8 5 6 6 5 6 7 8 8 9 9 10 10 8 9 14 22 30 38 48 53 56 58 67 76 83 84 82
81 81 73 70 77 91 96 96 95 87 71 42 22 11 6 6 7 6 6 7 8 10 11 12 12 11 13 12 12 18 24 29 33 37 41 46 56 63 72 78 81 90 89
84 80 86 96 97 97 96 95 89 73 39 17 7 5 7 7 7 7 8 10 12 14 16 18 17 16 16 16 16 22 29 32 36 39 44 53 61 66 72 85 80 87 90
91 95 97 97 96 97 95 92 78 39 13 6 6 7 7 7 8 10 13 16 18 20 23 26 26 24 22 21 19 22 27 32 41 46 50 58 67 70 75 84 86 82 87
97 97 96 96 96 94 90 81 33 10 6 6 8 8 9 10 14 17 18 20 23 27 29 32 32 33 31 29 26 25 34 38 42 47 51 58 66 72 76 86 92 88 92
96 95 95 95 94 90 82 26 8 6 7 9 10 12 15 18 19 20 24 27 30 33 33 35 38 41 41 40 40 39 37 46 50 54 58 63 70 75 80 84 92 97 94
95 96 96 94 93 76 20 6 6 10 12 13 16 19 20 22 24 27 30 31 32 36 38 42 46 51 56 56 53 53 54 52 54 61 64 66 71 77 78 86 90 89 90
96 96 96 96 72 14 6 7 11 13 15 17 20 23 24 27 28 31 32 33 35 40 46 50 55 59 64 68 70 70 68 65 68 68 73 74 72 75 82 90 92 93 91
98 98 93 34 9 6 7 11 14 16 18 21 24 27 27 26 29 32 36 40 45 48 51 52 54 56 61 65 72 76 76 79 82 82 83 85 86 83 84 93 94 94 96
96 58 14 7 6 8 12 15 18 20 23 25 25 26 27 28 31 34 38 40 38 38 41 46 52 57 62 66 71 76 80 82 85 88 92 96 98 94 95 98 100 100 98
44 12 7 7 9 12 17 19 21 23 24 25 28 31 34 36 38 39 34 32 37 48 54 56 59 63 67 69 72 77 81 86 92 94 94 98 100 100 100 100 100 100 100
11 11 8 10 13 18 20 23 25 26 26 32 35 38 40 42 42 34 32 42 50 54 58 60 61 64 67 69 74 78 82 90 95 96 98 99 99 100 100 100 100 100 100
10 9 11 14 18 23 26 26 25 28 39 42 44 44 45 44 32 33 47 54 56 59 62 65 68 71 73 74 75 76 80 88 94 98 100 100 100 100 100 100 100 100 100
9 13 14 16 20 24 27 29 35 45 46 46 47 48 44 32 34 50 56 59 61 65 69 71 74 76 78 80 83 83 81 87 94 98 100 100 100 100 100 100 100 100 100
13 16 20 25 32 37 40 45 50 51 51 52 53 46 35 39 52 57 61 64 68 72 74 76 81 83 82 84 87 88 92 93 96 100 100 100 100 100 100 100 100 100 100

GFSGL_700_rhum_216.txt.gz
RH
88 91 94 91 82 100 97 100 95 100 89 61 55 79 87 85 95 100 98 99 99 98 82 46 44 44 44 39 40 44 46 44 43 36 31 26 17 13 9 6 5 4 3
85 90 97 100 95 88 95 100 100 100 80 73 75 90 94 89 100 100 99 98 88 67 49 51 50 46 42 44 52 51 46 42 33 26 20 16 9 5 4 3 2 2 2
77 81 90 96 100 99 100 99 100 97 99 92 99 100 100 99 99 99 94 66 57 53 54 53 49 45 53 55 48 45 37 28 22 17 10 6 5 3 3 3 3 3 3
68 78 87 100 100 100 100 100 100 100 99 99 100 100 99 99 99 91 65 59 56 58 56 50 49 59 54 47 42 30 23 18 11 7 4 4 3 3 3 3 3 3 3
71 67 80 96 99 99 100 100 100 100 99 99 99 99 99 99 97 95 95 92 85 58 51 59 62 56 45 34 26 21 12 7 5 4 3 3 3 4 4 4 4 4 4
99 79 87 100 100 96 100 100 99 99 99 99 99 99 99 98 97 95 95 85 60 54 67 62 54 41 30 25 18 9 5 4 4 3 3 4 5 5 5 5 5 5 5
98 97 96 100 99 100 100 99 100 99 99 99 99 99 97 97 96 95 92 62 66 69 62 52 34 24 18 11 6 4 4 4 4 4 5 6 7 7 7 7 7 8 10
99 99 98 100 99 100 99 99 100 99 99 98 98 97 96 95 95 94 93 91 72 59 44 31 24 18 10 6 4 4 5 6 7 8 8 8 9 10 10 9 9 9 9
98 98 99 99 99 99 99 99 99 99 98 98 97 97 94 93 88 81 80 76 61 43 31 24 14 7 4 4 4 5 6 8 9 10 10 11 12 12 12 11 11 11 10
99 99 99 99 99 99 99 98 98 97 97 97 96 94 90 82 84 83 73 54 42 30 18 12 6 4 5 6 6 7 9 10 11 12 13 14 15 15 14 13 13 14 15
88 98 98 98 98 98 98 98 97 98 96 89 82 88 91 91 84 71 54 38 24 13 8 6 5 5 7 8 8 11 12 13 14 16 18 19 19 18 16 15 16 19 22
100 100 99 98 98 98 97 96 93 78 76 88 96 97 95 84 70 52 39 26 13 7 6 6 6 8 9 11 12 12 14 17 19 19 22 25 24 22 20 19 21 23 34
100 99 99 100 97 96 94 87 76 80 92 96 98 94 88 73 55 36 19 10 6 6 6 8 10 11 12 14 13 17 20 20 22 23 27 30 30 28 25 24 26 28 32
96 97 96 96 84 78 80 85 91 98 99 99 94 92 75 54 35 15 8 7 6 7 9 11 11 11 15 16 17 18 20 24 25 27 32 34 37 37 32 31 33 35 34
98 97 96 96 91 86 87 88 94 96 97 96 94 83 58 28 11 8 7 8 10 12 12 12 13 13 16 18 20 22 25 26 30 32 35 38 43 46 44 40 41 44 44
97 96 96 96 95 96 96 97 96 94 95 96 87 60 25 9 8 8 9 10 11 12 12 13 13 16 17 19 21 25 24 25 28 30 32 37 44 51 55 53 54 57 56
96 96 96 96 96 96 97 96 96 96 97 92 57 18 8 8 8 9 12 12 12 13 12 14 15 16 20 24 25 18 21 27 31 34 38 42 48 54 62 65 69 68 67
96 96 97 97 97 96 96 96 98 100 98 70 23 9 7 8 9 11 12 14 14 14 15 17 20 24 27 23 17 23 32 33 38 44 48 51 55 60 64 67 75 81 81
93 95 97 96 97 97 97 99 100 94 70 28 14 8 9 10 12 14 15 15 17 18 20 23 26 28 23 18 26 33 36 40 44 48 52 56 63 68 74 81 82 90 97
98 97 98 98 98 98 99 98 93 67 30 13 8 10 12 13 14 16 17 19 21 23 25 27 29 25 21 30 36 39 42 48 52 54 55 58 66 76 83 88 89 89 93
97 97 97 97 97 96 95 91 57 24 12 9 10 13 14 16 18 19 21 24 27 30 31 32 28 23 31 40 43 46 51 57 61 63 65 68 71 77 88 94 97 98 97
96 96 96 95 93 92 85 53 23 13 10 12 14 15 16 17 19 24 30 32 34 34 35 31 26 32 42 46 50 55 60 64 67 72 75 75 75 81 90 95 98 100 99
96 96 95 94 96 88 49 25 16 12 12 12 14 16 18 22 29 34 36 37 37 39 36 29 33 44 50 55 60 63 66 69 72 76 79 82 83 87 93 97 100 100 100
95 95 97 92 72 41 21 14 10 10 14 16 19 22 26 32 37 40 42 43 44 41 34 37 48 55 60 66 68 70 71 72 74 79 84 89 93 97 97 98 100 100 100
95 95 84 43 23 12 9 9 11 13 16 18 23 30 36 40 45 48 49 49 44 36 42 51 57 60 66 70 73 73 74 77 79 84 90 95 98 100 100 100 100 100 99
91 45 16 9 8 9 10 11 12 14 17 22 28 33 40 48 53 54 52 45 40 45 55 60 62 66 69 72 76 77 80 84 88 92 95 94 94 97 99 99 98 98 99

GFSGL_700_rhum_219.txt.gz
RH
62 77 95 100 90 70 90 98 94 65 44 44 39 39 42 46 49 57 59 68 88 98 90 84 74 76 84 82 51 41 38 37 42 44 43 42 37 30 24 16 9 7 6
68 76 96 87 100 88 76 82 100 98 99 60 47 45 47 56 66 68 66 84 99 98 96 91 97 93 72 60 45 42 43 48 47 46 42 34 26 18 11 8 7 5 3
67 69 72 86 98 90 93 91 98 100 100 85 81 70 60 75 80 76 77 95 99 99 100 97 84 66 64 50 44 50 50 49 45 38 33 24 15 9 7 5 3 3 3
64 71 71 77 94 100 99 89 100 100 100 99 100 100 92 87 90 95 98 100 100 98 98 81 81 79 51 48 55 54 50 45 37 31 22 11 6 5 4 3 3 3 3
68 68 68 73 78 87 98 100 95 94 100 100 100 100 97 98 99 99 99 99 99 96 87 96 90 80 59 59 55 53 46 34 22 16 8 5 4 4 3 3 4 4 5
72 76 79 73 77 95 99 100 100 100 100 100 100 99 99 98 99 99 98 98 94 93 96 96 93 90 71 61 51 37 24 18 10 6 4 4 4 4 4 5 6 6 7
78 85 89 91 99 100 99 99 100 100 99 100 100 99 98 98 99 98 98 97 96 96 95 94 91 77 69 46 34 22 12 6 5 5 5 4 4 5 6 7 8 10 10
86 91 96 84 98 93 99 99 99 100 99 99 99 99 99 99 99 98 96 96 95 95 96 95 90 81 48 31 14 9 7 5 5 5 5 6 6 7 8 9 10 12 13
98 98 97 98 100 100 99 98 99 99 99 100 99 98 98 98 97 97 97 96 96 96 94 78 53 36 24 15 10 6 5 5 5 6 7 7 9 11 12 13 15 17 17
99 93 99 98 99 100 99 99 99 99 99 98 98 98 97 97 97 96 96 95 88 73 59 46 36 22 11 7 6 5 6 6 6 7 9 11 13 14 16 20 22 21 21
99 98 98 98 98 98 98 99 98 98 98 98 97 97 97 97 96 95 94 90 66 47 39 30 18 9 6 5 6 6 6 6 7 7 9 12 15 16 20 24 27 27 26
100 92 82 97 98 98 98 98 98 97 97 97 97 97 96 96 93 85 72 59 46 36 25 16 9 6 5 6 7 7 7 7 8 10 13 17 19 21 25 31 33 33 32
98 85 89 92 94 98 97 97 97 97 97 96 96 91 89 90 85 80 71 50 35 24 12 8 6 6 7 7 8 8 8 9 12 14 17 18 18 18 24 30 35 37 37
98 99 98 98 97 97 96 96 96 96 95 95 91 87 84 84 83 70 51 30 13 10 8 6 7 8 9 9 9 9 11 13 15 18 17 14 16 22 28 31 29 36 37
98 98 98 98 98 97 98 97 96 96 93 87 84 86 85 82 65 44 28 15 10 8 7 8 9 10 10 9 10 13 15 17 19 16 13 15 24 28 30 32 33 35 39
98 97 97 97 97 97 93 77 83 89 88 91 91 90 86 69 46 32 21 11 8 8 9 11 11 11 10 11 16 19 20 20 17 16 22 28 33 34 35 36 38 41 42
98 98 97 96 95 94 94 94 96 97 98 97 93 88 80 58 34 15 9 8 10 11 12 14 12 13 16 18 21 22 21 18 18 28 33 34 36 38 38 39 42 47 51
98 98 97 96 96 96 98 100 100 96 99 92 89 83 64 29 14 9 9 10 12 16 16 15 17 20 21 22 23 24 20 20 28 32 36 38 40 41 42 44 48 54 59
98 97 97 96 96 95 92 93 93 95 95 91 82 54 26 12 10 11 12 14 17 17 16 18 20 21 23 25 26 23 22 28 34 38 41 43 44 47 50 52 55 62 70
97 97 97 96 95 94 95 94 96 95 92 82 43 17 11 11 12 14 16 17 17 17 19 21 23 26 29 29 26 24 29 36 40 42 44 48 51 55 58 60 62 66 75
97 96 97 96 96 95 95 96 96 94 81 44 21 16 14 13 14 15 16 16 18 20 24 27 30 32 33 30 26 28 34 40 45 49 51 55 57 60 66 67 68 74 81
97 97 96 95 94 96 96 95 94 74 41 22 18 13 14 14 14 15 16 18 22 26 29 33 36 36 34 28 27 33 42 48 53 56 59 61 63 67 72 76 78 81 86
96 96 96 96 96 95 94 94 80 48 27 19 15 13 13 14 14 16 18 21 25 31 36 37 38 37 31 28 33 43 49 56 61 64 66 68 71 76 81 85 89 90 93
97 95 96 96 96 97 94 69 42 24 17 12 10 10 12 13 14 17 20 25 32 38 39 40 39 34 31 36 44 51 58 65 70 74 75 76 78 85 89 92 93 91 92
97 96 96 96 88 70 42 27 16 11 10 10 10 11 12 13 15 18 22 29 37 42 44 42 36 34 40 49 56 62 67 73 77 80 82 83 85 92 96 94 94 94 99
96 95 96 83 50 23 13 10 9 10 11 11 12 14 16 18 22 28 33 39 43 44 41 36 38 48 55 60 67 70 74 79 82 86 88 88 88 92 97 97 96 95 95

GFSGL_700_rhum_225.txt.gz
RH
60 78 72 83 92 100 81 90 98 90 99 72 31 27 28 28 28 29 32 34 35 38 40 41 41 41 44 62 75 75 74 74 69 66 74 83 57 41 41 44 45 41 34
57 71 78 75 98 89 100 98 97 98 96 98 76 39 39 40 38 36 37 38 41 44 45 46 45 45 49 63 74 74 71 68 73 80 84 49 46 47 45 46 39 27 20
58 68 74 72 76 79 96 100 99 96 100 100 92 60 48 44 42 44 44 46 49 53 52 51 49 49 54 66 74 73 77 76 86 83 60 52 52 51 48 42 28 16 10
80 58 77 74 76 76 82 80 99 100 100 94 99 100 98 55 44 44 46 48 54 59 60 58 55 55 60 72 86 87 87 96 91 74 61 64 81 78 43 28 14 9 8
65 92 65 80 79 79 84 92 99 99 100 98 96 94 98 54 46 44 48 55 55 57 62 64 64 62 66 77 86 94 96 92 92 91 91 96 78 88 39 14 11 8 5
33 40 64 67 87 80 75 76 81 92 100 100 98 99 98 99 98 73 57 60 60 71 76 73 72 85 86 87 97 98 97 96 96 95 97 84 44 20 13 9 7 5 5
39 38 36 65 76 71 77 80 81 92 96 96 95 99 99 100 99 100 99 92 90 96 97 88 97 97 96 98 98 97 97 98 98 92 93 62 16 11 8 6 5 5 5
43 42 40 74 71 81 88 86 95 92 98 98 100 97 100 99 100 100 100 100 100 98 96 97 97 97 98 97 97 97 97 97 95 55 17 11 8 6 6 5 5 5 5
64 79 96 98 98 97 97 98 99 100 100 92 98 94 98 98 99 99 99 99 98 100 98 97 97 97 97 97 97 97 96 92 42 11 9 8 6 6 6 6 5 5 6
90 100 99 100 100 100 100 99 99 100 100 100 98 100 100 100 99 99 99 99 99 98 98 98 96 98 97 97 96 94 43 15 10 8 7 6 6 6 6 5 6 6 7
97 100 100 99 93 99 98 100 97 96 100 98 98 100 99 99 99 98 98 98 98 97 96 97 97 97 97 96 68 33 28 22 9 7 7 6 6 6 6 6 8 9 9
94 99 99 91 90 88 94 99 97 99 100 100 99 99 99 99 98 98 98 97 97 97 97 97 96 96 94 95 89 46 19 8 7 7 7 7 7 8 7 9 10 11 12
99 95 98 97 91 86 96 95 99 100 98 97 98 98 98 98 98 97 97 97 96 97 97 97 96 94 94 61 13 11 8 8 8 7 8 7 8 8 10 12 12 12 14
98 98 91 96 83 88 93 98 99 99 95 98 98 98 98 97 96 97 98 95 96 96 95 95 91 45 13 10 10 10 9 8 8 8 8 7 8 10 13 13 14 16 19
94 98 96 97 94 90 91 91 98 96 97 97 97 97 96 96 96 98 98 96 94 96 90 51 19 15 11 10 10 9 10 9 8 8 7 8 11 14 16 16 16 18 23
93 96 95 100 100 93 83 87 92 95 96 96 97 97 97 96 97 98 95 94 87 38 23 20 12 10 10 11 10 10 8 7 8 8 10 11 14 17 17 17 22 25 32
97 96 100 97 99 99 95 95 86 95 97 95 97 97 96 97 96 93 89 58 43 40 20 15 11 11 11 11 9 8 7 8 9 12 12 15 18 19 18 22 28 32 40
99 96 98 97 97 98 96 96 83 86 90 92 96 97 96 96 95 96 92 80 42 20 16 13 13 13 12 10 8 8 9 11 13 16 18 20 20 19 21 29 38 44 49
98 97 97 97 97 97 96 96 95 96 97 96 96 96 96 95 88 76 54 27 21 17 14 14 14 13 10 8 9 10 12 15 18 20 22 22 21 22 31 42 50 56 58
97 97 97 97 96 97 97 97 100 96 95 96 96 96 95 92 88 51 29 22 18 16 15 15 13 10 9 9 11 14 17 20 20 22 24 23 26 35 46 55 62 64 67
97 96 96 97 96 97 97 97 97 96 96 96 96 97 96 80 51 33 25 21 19 16 15 12 9 9 10 10 13 17 20 23 26 27 26 29 39 51 59 64 67 69 69
96 96 96 97 96 97 97 96 96 96 96 96 98 98 90 65 38 28 24 20 19 15 10 9 9 10 11 13 15 18 23 28 29 28 30 42 54 60 65 71 74 74 75
96 96 96 97 96 97 96 96 96 96 97 97 99 97 71 42 29 23 22 18 12 10 9 9 9 10 11 14 18 25 33 34 32 33 46 56 62 67 72 77 79 80 81
96 96 96 97 96 97 97 96 96 96 96 96 95 85 51 29 22 17 12 10 9 9 9 10 11 13 16 21 28 36 38 34 37 48 55 63 70 76 77 80 84 84 82
97 96 96 97 96 96 96 95 96 96 94 94 79 30 19 16 12 10 10 9 10 10 11 14 17 20 25 34 40 37 34 41 52 60 68 72 77 81 83 85 88 86 86
97 97 97 97 96 96 96 96 96 96 94 90 39 14 12 10 10 11 12 12 13 15 18 21 27 38 42 40 36 39 49 57 64 68 69 73 79 82 87 90 89 90 92